Погода в Патрах

Греция     38°14′37″N   21°43′59″E
В апреле 2022 года жителям России запретили посещать сайт meteo.paraplan.net по решению Генеральной прокуратуры. Аудитория сайта уменьшилась в 10 раз. Владельцы сайта не видят смысла в поддержке погодного сервера в таких условиях. Сайт будет закрыт в октябре.
темп.,
°C
ветер,
м/с
пор.,
м/с
влажн.,
%
обл.,
%
осадки,
мм/ч
давл.,
гПа
погр.,
м
3 октября, пн
пн300:00+20юз22670 0.0 1017216
03:00+20ююз11660 0.0 1016176
06:00+20ююв11595 0.0 101496
09:00+19юз23655 0.0 1015247
12:00+21зюз33640 0.0 1015393
15:00+21зюз44653 0.0 1013390
18:00+21юз5663100 0.0 1012635
21:00+21ююз446791 0.0 1013435
4 октября, вт
вт400:00+20всв126287 0.0 1013133
03:00+20всв56645 0.0 1013295
06:00+19всв67680 0.0 1013371
09:00+20всв77630 0.0 1014418
12:00+23всв65481 0.0 1016875
15:00+23св64450 0.0 1016803
18:00+23ссв21440 0.0 1016455
21:00+20всв33521 0.0 1018222
5 октября, ср
ср500:00+19всв56540 0.0 1020257
03:00+18всв56590 0.0 1020267
06:00+18всв67580 0.0 1021329
09:00+18в77510 0.0 1022442
12:00+21всв75470 0.0 1023880
15:00+23св75391 0.0 10221086
18:00+22всв76442 0.0 1022748
21:00+19всв78572 0.0 1024402
6 октября, чт
чт600:00+18в56602 0.0 1025330
03:00+17всв566012 0.0 1025391
06:00+16всв455183 0.0 1025326
09:00+17всв564598 0.0 1024377
12:00+21св55345 0.0 1024889
15:00+22ссв3330100 0.0 1023849
18:00+22сз1239100 0.0 1022303
21:00+20в3339100 0.0 1023179
7 октября, пт
пт700:00+19всв5649100 0.0 1024303
03:00+18всв5651100 0.0 1023258
06:00+18всв5649100 0.0 1022264
09:00+19всв67437 0.0 1022336
12:00+22всв663288 0.0 1022868
15:00+24св553266 0.0 1020731
18:00+23св45367 0.0 1020443
21:00+21всв674625 0.0 1021253